Change the Weather History Date:

Friday, May 31, 2013

  Actual Average Record
Temperature  
Mean Temperature 82 °F 77 °F  
Max Temperature 90 °F 88 °F 97 °F (1951)
Min Temperature 74 °F 65 °F 45 °F (1984)
Degree Days  
Heating Degree Days 0 0  
Month to date heating degree days 52 9  
Since 1 July heating degree days 2332 2351  
Cooling Degree Days 17 11  
Month to date cooling degree days 208 252  
Year to date cooling degree days 330 370  
Growing Degree Days 31 (Base 50)    
Moisture  
Dew Point 73 °F    
Average Humidity 77    
Maximum Humidity 94    
Minimum Humidity 59    
Precipitation  
Precipitation 0.08 in 0.12 in 1.98 in (2004)
Month to date precipitation 5.08 4.96  
Year to date precipitation 35.32 25.30  
Sea Level Pressure  
Sea Level Pressure 29.96 in    
Wind  
Wind Speed 9 mph (SSE)    
Max Wind Speed 22 mph    
Max Gust Speed 40 mph    
Visibility 9 miles    
Events Rain , Thunderstorm    
T = Trace of Precipitation, MM = Missing Value Source: NWS Daily Summary

Daily Weather History Graph

Daily Weather History Graph

Search for Another Location

Airport or City:

Trip Planner

Search our weather history database for the weather conditions in past years. The results will help you decide how hot, cold, wet, or windy it might be!

Date:

Astronomy

May. 31, 2013 Rise Set
Actual Time 5:58 AM CDT 8:05 PM CDT
Civil Twilight 5:30 AM CDT 8:33 PM CDT
Nautical Twilight 4:56 AM CDT 9:07 PM CDT
Astronomical Twilight 4:19 AM CDT 9:44 PM CDT
Moon 12:56 AM CDT (5/31) 12:55 PM CDT (5/31)
Length of Visible Light 15h 03m
Length of Day
14h 07m
Waning Gibbous, 51% of the Moon is Illuminated
May 31
Waning Gibbous
May 31
Last Quarter
Jun 8
New
Jun 16
First Quarter
Jun 23
Full

Hourly Weather History & Observations

Time (CDT) Temp. Heat Index Dew Point Humidity Pressure Visibility Wind Dir Wind Speed Gust Speed Precip Events Conditions
12:53 AM 73.9 °F - 71.1 °F 91% 29.97 in 10.0 mi SSE 8.1 mph - N/A   Partly Cloudy
1:07 AM 73.4 °F - 71.6 °F 94% 29.96 in 10.0 mi SSE 8.1 mph - N/A   Mostly Cloudy
1:53 AM 75.0 °F - 71.1 °F 87% 29.97 in 10.0 mi SSE 10.4 mph - N/A   Overcast
2:32 AM 73.4 °F - 71.6 °F 94% 29.94 in 10.0 mi SSE 5.8 mph - N/A   Mostly Cloudy
2:51 AM 73.4 °F - 71.6 °F 94% 29.93 in 10.0 mi SSE 6.9 mph - N/A   Mostly Cloudy
2:53 AM 75.0 °F - 71.1 °F 87% 29.95 in 10.0 mi SSE 5.8 mph - N/A   Mostly Cloudy
3:53 AM 75.0 °F - 72.0 °F 90% 29.96 in 10.0 mi SSE 5.8 mph - N/A   Overcast
4:14 AM 75.2 °F - 71.6 °F 89% 29.96 in 10.0 mi SE 3.5 mph - N/A   Overcast
4:53 AM 75.0 °F - 72.0 °F 90% 29.99 in 10.0 mi Calm Calm - 0.00 in   Overcast
5:02 AM 75.2 °F - 73.4 °F 94% 29.97 in 10.0 mi SE 3.5 mph - N/A   Overcast
5:28 AM 75.2 °F - 71.6 °F 89% 29.98 in 10.0 mi Calm Calm - N/A   Overcast
5:49 AM 73.4 °F - 73.4 °F 100% 29.98 in 10.0 mi ESE 3.5 mph - N/A   Overcast
5:53 AM 73.9 °F - 72.0 °F 93% 30.00 in 9.0 mi SE 4.6 mph - N/A   Overcast
6:53 AM 75.0 °F - 73.0 °F 94% 30.01 in 9.0 mi SSE 3.5 mph - 0.00 in   Partly Cloudy
7:09 AM 75.2 °F - 73.4 °F 94% 30.00 in 10.0 mi Calm Calm - N/A   Mostly Cloudy
7:53 AM 77.0 °F - 73.0 °F 88% 30.03 in 10.0 mi ESE 4.6 mph - N/A   Mostly Cloudy
8:16 AM 78.8 °F - 73.4 °F 83% 30.00 in 10.0 mi SE 5.8 mph - N/A   Scattered Clouds
8:53 AM 80.1 °F 84.5 °F 73.9 °F 81% 30.01 in 10.0 mi South 9.2 mph - N/A   Mostly Cloudy
9:29 AM 80.6 °F 85.4 °F 73.4 °F 79% 29.99 in 10.0 mi South 10.4 mph - N/A   Mostly Cloudy
9:53 AM 82.0 °F 87.9 °F 73.9 °F 76% 30.00 in 10.0 mi South 13.8 mph - N/A   Overcast
10:53 AM 82.9 °F 89.4 °F 73.9 °F 74% 30.00 in 10.0 mi South 12.7 mph - N/A   Overcast
11:44 AM 84.2 °F 90.9 °F 73.4 °F 70% 29.98 in 10.0 mi South 11.5 mph - N/A   Mostly Cloudy
11:53 AM 84.0 °F 91.2 °F 73.9 °F 72% 29.99 in 10.0 mi South 10.4 mph - N/A   Mostly Cloudy
12:53 PM 86.0 °F 93.8 °F 73.9 °F 67% 29.98 in 10.0 mi SSE 11.5 mph - N/A   Scattered Clouds
1:53 PM 88.0 °F 97.5 °F 75.0 °F 65% 29.96 in 10.0 mi South 13.8 mph - N/A   Partly Cloudy
2:53 PM 89.1 °F 98.0 °F 73.9 °F 61% 29.94 in 10.0 mi SSE 15.0 mph 21.9 mph N/A   Partly Cloudy
3:53 PM 88.0 °F 96.5 °F 73.9 °F 63% 29.92 in 10.0 mi South 11.5 mph - N/A   Scattered Clouds
4:53 PM 88.0 °F 97.5 °F 75.0 °F 65% 29.91 in 10.0 mi SSE 9.2 mph - N/A   Scattered Clouds
5:50 PM 84.2 °F 92.3 °F 75.2 °F 74% 29.90 in 1.8 mi SSE 11.5 mph 40.3 mph 0.08 in Rain Light Rain
5:53 PM 81.0 °F 87.3 °F 75.9 °F 85% 29.91 in 1.5 mi South 9.2 mph 40.3 mph 0.08 in Rain Heavy Rain
6:00 PM 82.4 °F 89.5 °F 75.2 °F 79% 29.89 in 5.0 mi South 8.1 mph - 0.00 in Rain Light Rain
6:46 PM 82.4 °F 89.5 °F 75.2 °F 79% 29.90 in 10.0 mi South 10.4 mph - 0.00 in Thunderstorm Scattered Clouds
6:53 PM 82.0 °F 89.4 °F 75.9 °F 82% 29.92 in 10.0 mi South 6.9 mph - 0.00 in Thunderstorm Partly Cloudy
7:04 PM 82.4 °F 89.5 °F 75.2 °F 79% 29.90 in 10.0 mi South 10.4 mph - N/A   Partly Cloudy
7:53 PM 81.0 °F 86.2 °F 73.9 °F 79% 29.92 in 10.0 mi SSE 9.2 mph - N/A   Clear
8:53 PM 79.0 °F - 72.0 °F 79% 29.92 in 10.0 mi South 11.5 mph - N/A   Partly Cloudy
9:53 PM 79.0 °F - 73.9 °F 84% 29.91 in 10.0 mi South 13.8 mph 21.9 mph N/A   Clear
10:53 PM 78.1 °F - 73.0 °F 84% 29.95 in 10.0 mi South 10.4 mph - N/A   Clear
11:53 PM 78.1 °F - 73.0 °F 84% 29.96 in 10.0 mi SSE 9.2 mph - N/A   Clear